Location: Newark
(45.6578°N, 6.1797°E)
Time: 21:59:32
(UTC+00:00)

ISS - Visible Passes

Search period start: 15 September 2019 00:00
Search period end: 25 September 2019 00:00
Orbit: 411 x 421 km, 51.6° (Epoch: 15 September)

Date Brightness Start Highest point End Pass type
(mag) Time Alt. Az. Time Alt. Az. Time Alt. Az.
15 Sep -2.8 03:32:39 32° S 03:32:39 32° S 03:34:58 10° SSE visible
18 Sep -1.7 19:23:58 10° SSW 19:24:55 16° SSW 19:24:55 16° SSW visible
19 Sep -2.2 18:36:12 10° S 18:38:34 18° SE 18:39:16 17° ESE visible
19 Sep -1.0 20:11:40 10° WSW 20:12:13 14° WSW 20:12:13 14° WSW visible
20 Sep -3.8 19:23:11 10° SW 19:26:18 69° S 19:26:18 69° S visible
21 Sep -3.4 18:34:52 10° SW 18:38:02 44° SE 18:40:10 18° ENE visible
21 Sep -1.3 20:11:38 10° W 20:13:05 22° WNW 20:13:05 22° WNW visible
22 Sep -3.2 19:22:56 10° WSW 19:26:13 55° NNW 19:26:46 47° NNE visible
23 Sep -3.7 18:34:20 10° WSW 18:37:39 80° NNW 18:40:20 15° ENE visible
23 Sep -1.1 20:11:44 10° WNW 20:13:13 21° NW 20:13:13 21° NW visible
24 Sep -2.5 19:22:57 10° W 19:26:03 34° NNW 19:26:40 31° NNE visible
